User: anonymous   Login
Location: Camoruquito
(9.9001°N, 67.3564°W)
Time: 09:28:09
(UTC+00:00)
Language:

CZ-3 R/B - Orbit

View from above orbital plane
View from above orbital plane
View from above satellite
View from above satellite

Ground track
Ground track

The orbit data is extracted from the following two-line orbital elements,

1 29517U 06048B   24169.90696146  .00000488  00000-0  42799-3 0  9999
2 29517  28.2834 125.7209 4108802 281.9578  35.9618  6.89386670343490
Epoch (UTC): 17 June 2024 21:46:01
Eccentricity: 0.4108802
inclination: 28.2834°
perigee height: 492 km
apogee height: 10075 km
right ascension of ascending node: 125.7209°
argument of perigee: 281.9578°
revolutions per day: 6.89386670
mean anomaly at epoch: 35.9618°
orbit number at epoch: 34349

The dashed part of the orbit path shows where the satellite is in the earth's shadow,  

DLR